Copper Mountain, CO

5:43 AM MST on November 20, 2017 (GMT -0700)
Copper Mountain

Weather History for KCCU - May, 2014

Change the Weather History Date:

Sunday, May 11, 2014

  Actual Average Record
Temperature  
Mean Temperature 28 °F -  
Max Temperature 37 °F - 55 °F (2007)
Min Temperature 19 °F - 12 °F (2003)
Degree Days  
Heating Degree Days 37    
Month to date heating degree days  
Cooling Degree Days 0    
Month to date cooling degree days  
Moisture  
Dew Point 24 °F    
Average Humidity 78    
Maximum Humidity 87    
Minimum Humidity 60    
Precipitation  
Precipitation 0.00 in - 0.12 in (2012)
Sea Level Pressure  
Sea Level Pressure 29.85 in    
Wind  
Wind Speed 13 mph (ESE)    
Max Wind Speed 23 mph    
Max Gust Speed 40 mph    
Visibility 2 miles    
Events Snow , Thunderstorm    
T = Trace of Precipitation, MM = Missing Value Source: NWS Daily Summary

Daily Weather History Graph

Daily Weather History Graph

Search for Another Location

Airport or City:

Trip Planner

Search our weather history database for the weather conditions in past years. The results will help you decide how hot, cold, wet, or windy it might be!

Date:

Astronomy

May. 11, 2014 Rise Set
Actual Time 5:54 AM MDT 8:08 PM MDT
Civil Twilight 5:24 AM MDT 8:38 PM MDT
Nautical Twilight 4:47 AM MDT 9:15 PM MDT
Astronomical Twilight 4:07 AM MDT 9:55 PM MDT
Moon 5:07 PM MDT (5/11) 4:00 AM MDT (5/11)
Length of Visible Light 15h 13m
Length of Day
14h 13m
Waxing Gibbous, 89% of the Moon is Illuminated
May 11
Waxing Gibbous
May 14
Full
May 21
Last Quarter
May 28
New
Jun 5
First Quarter

Hourly Weather History & Observations

Time (MDT) Temp. Windchill Dew Point Humidity Pressure Visibility Wind Dir Wind Speed Gust Speed Precip Events Conditions
12:16 AM 37.4 °F - 24.8 °F 60% 29.86 in 5.0 mi North - - N/A   Haze
12:36 AM 37.4 °F 26.9 °F 24.8 °F 60% 29.87 in 3.0 mi ESE 20.7 mph 29.9 mph N/A   Haze
12:56 AM 37.4 °F 29.8 °F 26.6 °F 65% 29.89 in 10.0 mi SE 11.5 mph 21.9 mph N/A   Overcast
1:16 AM 37.4 °F 27.8 °F 26.6 °F 65% 29.87 in 4.0 mi SE 17.3 mph 40.3 mph N/A Snow Light Snow
1:36 AM 37.4 °F 26.4 °F 28.4 °F 70% 29.87 in 5.0 mi SE 23.0 mph 31.1 mph N/A Snow Light Snow
1:56 AM 35.6 °F 27.1 °F 28.4 °F 75% 29.88 in 7.0 mi SSE 12.7 mph 21.9 mph N/A Snow Light Snow
2:16 AM 35.6 °F 27.5 °F 26.6 °F 70% 29.86 in 4.0 mi ESE 11.5 mph 29.9 mph N/A Snow Light Snow
2:36 AM 33.8 °F 24.8 °F 28.4 °F 81% 29.86 in 3.0 mi SE 12.7 mph 24.2 mph N/A Snow Light Snow
2:56 AM 35.6 °F 28.6 °F 28.4 °F 75% 29.84 in 7.0 mi ESE 9.2 mph 29.9 mph N/A Snow Light Snow
3:16 AM 35.6 °F 25.9 °F 28.4 °F 75% 29.83 in 5.0 mi ESE 16.1 mph 24.2 mph N/A   Haze
3:36 AM 33.8 °F 27.7 °F 28.4 °F 81% 29.84 in 7.0 mi SE 6.9 mph - N/A Snow Light Snow
3:56 AM 35.6 °F 25.5 °F 26.6 °F 70% 29.83 in 10.0 mi ESE 17.3 mph 26.5 mph N/A   Overcast
4:16 AM 35.6 °F 28.6 °F 26.6 °F 70% 29.84 in 10.0 mi ESE 9.2 mph - N/A   Overcast
4:36 AM 33.8 °F 25.3 °F 26.6 °F 75% 29.84 in 1.8 mi SE 11.5 mph 26.5 mph N/A Snow Light Snow
4:56 AM 33.8 °F 27.0 °F 28.4 °F 81% 29.84 in 2.0 mi SE 8.1 mph 23.0 mph N/A Snow Light Snow
5:16 AM 33.8 °F 26.4 °F 30.2 °F 87% 29.82 in 1.8 mi SE 9.2 mph 19.6 mph N/A Snow Light Snow
5:36 AM 33.8 °F 23.9 °F 28.4 °F 81% 29.81 in 4.0 mi SE 15.0 mph 20.7 mph N/A Snow Light Snow
5:56 AM 33.8 °F 25.3 °F 28.4 °F 81% 29.80 in 10.0 mi SE 11.5 mph 20.7 mph N/A   Mostly Cloudy
6:16 AM 33.8 °F 26.4 °F 26.6 °F 75% 29.81 in 10.0 mi SSE 9.2 mph - N/A   Mostly Cloudy
6:36 AM 33.8 °F 23.9 °F 28.4 °F 81% 29.80 in 3.0 mi SE 15.0 mph 23.0 mph N/A   Haze
6:56 AM 33.8 °F 23.9 °F 30.2 °F 87% 29.80 in 0.8 mi SE 15.0 mph 20.7 mph N/A Snow Light Snow
7:16 AM 33.8 °F 25.8 °F 28.4 °F 81% 29.80 in 2.0 mi SE 10.4 mph - N/A Snow Light Snow
7:36 AM 33.8 °F 24.3 °F 28.4 °F 81% 29.80 in 1.5 mi SE 13.8 mph 21.9 mph N/A Snow Light Snow
7:56 AM 33.8 °F 24.8 °F 28.4 °F 81% 29.79 in 0.8 mi SE 12.7 mph 25.3 mph N/A Snow Light Snow
8:16 AM 33.8 °F 24.3 °F 28.4 °F 81% 29.80 in 0.5 mi SSE 13.8 mph 24.2 mph N/A Snow Light Snow
8:36 AM 33.8 °F 27.0 °F 28.4 °F 81% 29.79 in 1.0 mi SE 8.1 mph 19.6 mph N/A Snow Light Snow
8:56 AM 33.8 °F 26.4 °F 28.4 °F 81% 29.79 in 1.0 mi ESE 9.2 mph 24.2 mph N/A Snow Light Snow
9:16 AM 33.8 °F 25.8 °F 28.4 °F 81% 29.79 in 1.5 mi SSE 10.4 mph 17.3 mph N/A Snow Light Snow
9:36 AM 33.8 °F 27.7 °F 30.2 °F 87% 29.79 in 0.2 mi ESE 6.9 mph - N/A Snow Snow
9:56 AM 30.2 °F - 26.6 °F 86% 29.78 in 0.2 mi North - - N/A Snow Heavy Snow
10:16 AM 30.2 °F 20.8 °F 26.6 °F 86% 29.79 in 0.2 mi East 11.5 mph 17.3 mph N/A Snow Snow
10:36 AM 32.0 °F 24.2 °F 28.4 °F 87% 29.79 in 0.2 mi East 9.2 mph 16.1 mph N/A Snow Snow
10:56 AM 30.2 °F 19.3 °F 26.6 °F 86% 29.79 in 0.5 mi East 15.0 mph 28.8 mph N/A Snow Snow
11:16 AM 30.2 °F 18.1 °F 24.8 °F 80% 29.80 in 0.5 mi East 18.4 mph 24.2 mph N/A Snow Light Snow
11:36 AM 30.2 °F 22.6 °F 24.8 °F 80% 29.80 in 0.2 mi East 8.1 mph 17.3 mph N/A Snow Heavy Snow
11:56 AM 28.4 °F - 23.0 °F 80% 29.81 in 0.2 mi North - - N/A Snow Snow
12:16 PM 30.2 °F 22.6 °F 24.8 °F 80% 29.81 in 0.2 mi East 8.1 mph - N/A Snow Heavy Snow
12:36 PM 32.0 °F 26.4 °F 26.6 °F 80% 29.81 in 0.2 mi ENE 5.8 mph - N/A Snow Heavy Snow
12:56 PM 28.4 °F - 23.0 °F 80% 29.81 in 0.2 mi North - - N/A Snow Heavy Snow
1:16 PM 28.4 °F - 21.2 °F 74% 29.82 in 0.2 mi North - - N/A Snow Heavy Snow
1:36 PM 26.6 °F - 21.2 °F 80% 29.85 in 0.2 mi North - - N/A Snow Snow
1:56 PM 26.6 °F 18.2 °F 21.2 °F 80% 29.84 in 0.2 mi North 8.1 mph - N/A Snow Heavy Snow
2:16 PM 28.4 °F - 21.2 °F 74% 29.82 in 0.2 mi North - - N/A Snow Snow
2:36 PM 28.4 °F - 21.2 °F 74% 29.83 in 0.5 mi North - - N/A Snow , Thunderstorm Thunderstorms and Snow
2:56 PM 26.6 °F - 21.2 °F 80% 29.84 in 0.2 mi North - - N/A Snow , Thunderstorm Heavy Thunderstorms and Snow
3:16 PM 26.6 °F - 21.2 °F 80% 29.84 in 0.2 mi North - - N/A Snow Snow
3:36 PM 26.6 °F - 21.2 °F 80% 29.85 in 0.2 mi North - - N/A Snow Snow
3:56 PM 26.6 °F - 21.2 °F 80% 29.84 in 0.2 mi North - - N/A Snow Heavy Snow
4:16 PM 26.6 °F 17.5 °F 21.2 °F 80% 29.85 in 0.2 mi SSE 9.2 mph - N/A Snow Heavy Snow
4:36 PM 28.4 °F - 21.2 °F 74% 29.86 in 0.2 mi North - - N/A Snow Heavy Snow
4:56 PM 28.4 °F - 23.0 °F 80% 29.87 in 0.5 mi North - - N/A Snow , Thunderstorm Light Thunderstorms and Snow
5:16 PM 28.4 °F - 21.2 °F 74% 29.88 in 7.0 mi North - - N/A Snow Light Snow
5:36 PM 32.0 °F 28.7 °F 23.0 °F 69% 29.86 in 1.0 mi NNW 3.5 mph - N/A Snow Light Snow
5:56 PM 28.4 °F 21.2 °F 23.0 °F 80% 29.87 in 1.0 mi ENE 6.9 mph - N/A Snow Light Snow
6:16 PM 28.4 °F 22.2 °F 21.2 °F 74% 29.88 in 1.2 mi ENE 5.8 mph - N/A Snow Light Snow
6:36 PM 28.4 °F 21.2 °F 21.2 °F 74% 29.88 in 0.8 mi ESE 6.9 mph - N/A Snow Snow
6:56 PM 26.6 °F 19.1 °F 21.2 °F 80% 29.89 in 0.8 mi South 6.9 mph - N/A Snow Light Snow
7:16 PM 26.6 °F 21.2 °F 21.2 °F 80% 29.89 in 1.0 mi WNW 4.6 mph - N/A Snow Light Snow
7:36 PM 26.6 °F 22.6 °F 19.4 °F 74% 29.90 in 0.2 mi NNW 3.5 mph - N/A Snow Light Snow
7:56 PM 24.8 °F - 19.4 °F 80% 29.91 in 0.2 mi Calm Calm - N/A Snow Snow
8:16 PM 24.8 °F 12.9 °F 19.4 °F 80% 29.91 in 1.5 mi NE 13.8 mph - N/A Snow Light Snow
8:36 PM 23.0 °F 14.7 °F 17.6 °F 80% 29.92 in 4.0 mi NE 6.9 mph - N/A Snow Light Snow
8:56 PM 23.0 °F 13.9 °F 17.6 °F 80% 29.92 in 1.2 mi NNE 8.1 mph - N/A Snow Light Snow
9:16 PM 23.0 °F 13.1 °F 17.6 °F 80% 29.92 in 1.8 mi East 9.2 mph 18.4 mph N/A Snow Light Snow
9:36 PM 23.0 °F 11.7 °F 17.6 °F 80% 29.93 in 2.0 mi East 11.5 mph - N/A Snow Light Snow
9:56 PM 23.0 °F 11.7 °F 17.6 °F 80% 29.94 in 1.2 mi East 11.5 mph 20.7 mph N/A Snow Light Snow
10:16 PM 23.0 °F 10.1 °F 17.6 °F 80% 29.94 in 2.5 mi NE 15.0 mph 18.4 mph N/A Snow Light Snow
10:36 PM 21.2 °F 7.3 °F 14.0 °F 74% 29.94 in 1.8 mi ENE 16.1 mph 21.9 mph N/A Snow Light Snow
10:56 PM 19.4 °F 6.6 °F 14.0 °F 80% 29.95 in 2.5 mi East 12.7 mph 21.9 mph N/A Snow Light Snow
11:16 PM 19.4 °F 4.1 °F 14.0 °F 80% 29.93 in 1.8 mi East 18.4 mph 25.3 mph N/A Snow Light Snow
11:36 PM 19.4 °F 3.2 °F 14.0 °F 80% 29.94 in 0.8 mi East 20.7 mph 27.6 mph N/A Snow Light Snow
11:56 PM 19.4 °F 6.6 °F 14.0 °F 80% 29.95 in 0.5 mi East 12.7 mph 26.5 mph N/A Snow Snow